Location: Cardiff
(53.7833°N, 113.6000°W)
Time: 18:10:17
(UTC+00:00)

NOAA 15 - Pass Details

Date: 03 December 2023
Orbit: 796 x 810 km, 98.6° (Epoch: 21 February)

Event Time Altitude Azimuth Distance (km) Brightness Sun altitude
Rises 03:31:04 0° 204° (SSW) 3,320 7.9 -36.2°
Reaches altitude 10° 03:33:53 10° 219° (SW) 2,393 7.3 -36.7°
Maximum altitude 03:38:00 23° 270° (W) 1,681 6.7 -37.2°
Drops below altitude 10° 03:42:08 10° 322° (NW) 2,401 7.6 -37.8°
Sets 03:45:00 0° 337° (NNW) 3,335 8.2 -38.2°
